FW2189 Weather Reports


Display with metric or nautical units.
time (UTC)temp
F
wind
direction
speed
MPH
gust
MPH
rain 1hr
in
rain 24hr
in
rain mn
in
humidity
%
barometer
mb
20260505093803 55 152 1.0 3.0 0.00 0.00 0.00 63 1013.2
20260505092304 55 152 1.0 4.0 0.00 0.00 0.00 63 1012.9
20260505090802 56 172 1.0 4.0 0.00 0.00 0.00 62 1012.7
20260505085304 56 152 1.0 3.0 0.00 0.00 0.00 62 1012.7
20260505083802 57 175 1.0 3.0 0.00 0.00 0.00 61 1012.7
20260505082304 57 131 1.0 3.0 0.00 0.00 0.00 61 1012.5
20260505080802 57 157 1.0 3.0 0.00 0.00 0.00 61 1012.5
20260505075303 57 152 0.0 2.0 0.00 0.00 0.00 62 1012.4
20260505075150 57 152 1.0 3.0 0.00 0.00 0.00 61 1012.2
20260505073026 57 164 2.0 6.0 0.00 0.00 0.00 61 1012.0
20260505070800 58 110 1.0 3.0 0.00 0.00 0.00 60 1011.9
20260505065259 59 161 2.0 3.0 0.00 0.00 0.00 59 1011.8
20260505064515 60 144 1.0 4.0 0.00 0.00 0.00 59 1011.5
20260505062259 60 142 2.0 4.0 0.00 0.00 0.00 58 1011.3
20260505060758 61 158 2.0 6.0 0.00 0.00 0.00 56 1011.0
20260505055259 63 154 4.0 5.0 0.00 0.00 0.00 55 1010.9
20260505053757 63 169 2.0 4.0 0.00 0.00 0.00 55 1010.9
20260505052257 63 58 0.0 2.0 0.00 0.00 0.00 56 1010.7
20260505050757 64 58 1.0 4.0 0.00 0.00 0.00 54 1010.7
20260505040755 68 154 0.0 2.0 0.00 0.00 0.00 51 1010.0
20260505035255 69 154 1.0 3.0 0.00 0.00 0.00 49 1009.8
20260505033755 70 162 1.0 4.0 0.00 0.00 0.00 49 1009.6
20260505032254 71 155 2.0 4.0 0.00 0.00 0.00 48 1009.3
20260505030754 71 190 0.0 3.0 0.00 0.00 0.00 49 1009.2
20260505025253 73 149 2.0 5.0 0.00 0.00 0.00 47 1009.0
20260505023754 73 216 1.0 4.0 0.00 0.00 0.00 46 1008.9
20260505022254 74 157 0.0 5.0 0.00 0.00 0.00 46 1008.7
20260505020753 75 200 2.0 5.0 0.00 0.00 0.00 44 1008.7
20260505015252 75 279 1.0 4.0 0.00 0.00 0.00 45 1008.7
20260505013752 75 230 3.0 5.0 0.00 0.00 0.00 45 1008.9
20260505012251 75 172 1.0 4.0 0.00 0.00 0.00 45 1008.9
20260505010751 73 159 2.0 6.0 0.00 0.00 0.00 46 1009.0
20260505005251 73 189 2.0 6.0 0.00 0.00 0.00 46 1009.1
20260505003751 73 180 1.0 7.0 0.00 0.00 0.00 46 1009.2
20260505003048 73 154 3.0 5.0 0.00 0.00 0.00 45 1009.2
20260505002848 74 161 3.0 6.0 0.00 0.00 0.00 45 1009.3
20260504235249 73 214 2.0 4.0 0.00 0.00 0.00 45 1009.4
20260504234444 73 197 2.0 5.0 0.00 0.00 0.00 45 1009.5
20260504232249 73 148 2.0 6.0 0.00 0.00 0.00 43 1009.5
20260504230749 74 214 3.0 5.0 0.00 0.00 0.00 44 1009.7
20260504225248 74 220 2.0 5.0 0.00 0.00 0.00 43 1009.8
20260504223748 73 117 2.0 5.0 0.00 0.00 0.00 43 1010.0
20260504222248 73 47 2.0 3.0 0.00 0.00 0.00 43 1010.2
20260504220748 72 276 1.0 6.0 0.00 0.00 0.00 44 1010.4
20260504215247 72 169 2.0 4.0 0.00 0.00 0.00 45 1010.6
20260504213747 70 148 1.0 5.0 0.00 0.00 0.00 46 1010.7
20260504212246 69 69 1.0 5.0 0.00 0.00 0.00 48 1010.9
20260504210747 68 147 2.0 3.0 0.00 0.00 0.00 49 1011.2
20260504205245 67 183 0.0 0.0 0.00 0.00 0.00 49 1011.6
20260504203745 66 120 0.0 0.0 0.00 0.00 0.00 51 1011.7
20260504202245 66 243 0.0 2.0 0.00 0.00 0.00 50 1011.9
20260504200745 65 266 2.0 7.0 0.00 0.00 0.00 53 1012.0
20260504195244 64 257 2.0 6.0 0.00 0.00 0.00 54 1012.1
20260504193744 63 255 3.0 9.0 0.00 0.00 0.00 54 1012.1
20260504192244 62 204 2.0 5.0 0.00 0.00 0.00 56 1012.2
20260504190743 61 85 2.0 6.0 0.00 0.00 0.00 58 1012.3
20260504185243 60 123 1.0 6.0 0.00 0.00 0.00 58 1012.5
20260504183743 59 144 2.0 6.0 0.00 0.00 0.00 58 1012.6
20260504182242 59 151 4.0 5.0 0.00 0.00 0.00 59 1012.4
20260504180743 59 138 2.0 4.0 0.00 0.00 0.00 59 1012.4
20260504175242 58 157 3.0 5.0 0.00 0.00 0.00 59 1012.5
20260504173741 57 258 1.0 4.0 0.00 0.00 0.00 60 1012.6
20260504172241 57 241 1.0 5.0 0.00 0.00 0.00 60 1012.5
20260504170741 57 178 2.0 5.0 0.00 0.00 0.00 61 1012.4
20260504150738 55 164 1.0 6.0 0.00 0.00 0.00 64 1011.9
20260504140731 54 148 2.0 3.0 0.00 0.00 0.00 65 1011.1
20260504130731 54 106 1.0 3.0 0.00 0.00 0.00 65 1010.3